Location: Camp at the Woods
(43.2055°N, 93.0905°W)
Time: 07:20:06
(UTC+00:00)

Cosmos 1302 Rocket - Visible Passes

Search period start: 21 May 2024 00:00
Search period end: 31 May 2024 00:00
Orbit: 755 x 773 km, 74.0° (Epoch: 20 May)

Date Brightness Start Highest point End Pass type
(mag) Time Alt. Az. Time Alt. Az. Time Alt. Az.
21 May 4.7 04:14:08 10° N 04:19:03 41° ENE 04:20:23 35° E visible
21 May 5.4 05:56:35 10° NW 06:00:34 25° W 06:00:34 25° W visible
22 May 5.4 03:36:19 10° N 03:40:37 25° ENE 03:42:52 19° E visible
22 May 4.6 05:17:51 10° NNW 05:22:46 44° WSW 05:23:03 43° WSW visible
23 May 6.0 02:58:52 10° NNE 03:02:02 16° NE 03:05:12 10° E visible
23 May 3.9 04:39:26 10° NNW 04:44:39 77° WSW 04:45:34 59° S visible
24 May 4.1 04:01:15 10° NNW 04:06:24 62° ENE 04:08:06 40° SE visible
24 May 5.9 05:44:39 10° WNW 05:47:49 16° W 05:48:17 16° WSW visible
25 May 4.8 03:23:15 10° N 03:28:04 37° ENE 03:30:40 23° ESE visible
25 May 5.3 05:05:29 10° NW 05:09:53 28° W 05:10:51 27° WSW visible
26 May 5.5 02:45:29 10° N 02:49:35 23° ENE 02:53:15 12° ESE visible
26 May 4.5 04:26:50 10° NNW 04:31:50 50° WSW 04:33:26 37° SSW visible
27 May 3.9 03:48:28 10° NNW 03:53:41 87° WSW 03:56:03 33° SSE visible
27 May 6.4 05:34:31 10° W 05:34:46 10° W 05:35:02 10° W visible
28 May 4.3 03:10:18 10° NNW 03:15:26 55° ENE 03:18:42 22° SE visible
28 May 5.9 04:53:23 10° NW 04:56:55 19° W 04:58:53 15° WSW visible
29 May 5.0 02:32:21 10° N 02:37:02 33° ENE 02:41:22 12° ESE visible
29 May 5.3 04:14:22 10° NW 04:18:57 32° W 04:21:34 21° SSW visible
30 May 4.4 03:35:47 10° NNW 03:40:53 56° WSW 03:44:16 21° S visible
